Snowfall_Accumulation
0.0 0.0 0.0 0.0 0.0 0.0 0.0 0.0 0.0 0.0 0.0 0.0 0.0 0.0 0.0 0.0 0.0 0.0 0.0 0.0 0.0 0.0 0.0 0.0 0.0 0.0 0.0 0.0 0.0 0.0 0.0 0.0 0.0 0.0 0.0 0.0 0.0 0.0 0.0 0.0 0.0 0.0 0.0
0.0 0.0 0.0 0.0 0.0 0.0 0.0 0.0 0.0 0.0 0.0 0.0 0.0 0.0 0.0 0.0 0.0 0.0 0.0 0.0 0.0 0.0 0.0 0.0 0.0 0.0 0.0 0.0 0.0 0.0 0.0 0.0 0.0 0.0 0.0 0.0 0.0 0.0 0.0 0.0 0.0 0.0 0.0
0.0 0.0 0.0 0.0 0.0 0.0 0.0 0.0 0.0 0.0 0.0 0.0 0.0 0.0 0.0 0.0 0.0 0.0 0.0 0.0 0.0 0.0 0.0 0.0 0.0 0.0 0.0 0.0 0.0 0.0 0.0 0.0 0.0 0.0 0.1 0.0 0.1 0.1 0.1 0.0 0.0 0.0 0.0
0.0 0.0 0.0 0.0 0.0 0.0 0.0 0.0 0.0 0.0 0.0 0.0 0.0 0.0 0.0 0.0 0.0 0.0 0.0 0.0 0.0 0.0 0.0 0.0 0.0 0.0 0.0 0.0 0.0 0.0 0.0 0.1 0.1 0.1 0.2 0.2 0.2 0.2 0.2 0.2 0.4 0.3 0.2
0.0 0.0 0.0 0.0 0.0 0.0 0.0 0.0 0.0 0.0 0.0 0.0 0.0 0.0 0.0 0.0 0.0 0.0 0.0 0.0 0.0 0.0 0.0 0.0 0.0 0.0 nan nan 0.0 0.0 0.0 0.1 0.2 0.2 0.3 0.2 0.3 0.4 0.4 0.3 0.5 0.3 0.3
0.0 0.0 0.0 0.0 0.0 0.0 0.0 0.0 0.0 0.0 0.0 0.0 0.0 0.0 0.0 0.0 nan nan 0.0 0.0 0.0 0.0 0.0 0.0 0.0 0.0 0.0 nan nan nan nan 0.0 0.0 0.3 0.3 0.2 0.0 0.3 0.4 0.5 0.6 1.0 1.2
0.0 0.0 0.0 0.0 0.0 0.0 0.0 0.0 0.0 0.0 0.0 0.0 0.0 0.0 0.0 0.0 nan nan nan 0.0 0.0 0.0 0.0 0.0 0.0 0.0 0.1 0.0 nan nan nan nan nan 0.0 0.0 0.1 0.1 0.0 0.1 0.1 0.1 0.7 0.7
0.0 0.0 0.0 0.0 0.1 0.1 0.1 0.1 0.1 0.0 0.0 0.0 0.0 0.0 0.0 0.0 nan nan nan 0.0 0.0 0.0 0.0 0.0 0.0 0.0 0.0 0.0 0.0 0.0 0.0 0.0 0.0 0.0 0.0 0.0 0.0 0.0 0.0 0.0 0.1 0.1 0.8
0.0 0.0 0.1 0.1 0.1 0.1 0.1 0.1 0.1 0.1 0.1 0.0 0.0 0.0 0.0 0.0 nan nan 0.0 0.0 0.0 0.0 0.0 0.0 0.0 0.0 nan nan 0.0 0.0 0.1 0.0 nan nan nan nan nan nan nan 1.1 4.9 7.5 4.7
0.0 0.0 0.1 0.1 0.2 0.1 0.1 0.1 0.1 0.1 0.1 0.5 0.1 0.1 0.0 0.0 nan nan nan 0.3 0.0 0.5 0.1 0.0 0.0 0.0 nan nan 0.0 0.1 0.2 0.1 0.2 0.9 0.1 0.0 nan nan nan 0.1 1.4 5.6 4.6
0.1 0.1 0.1 0.1 0.3 0.1 0.1 0.1 0.2 0.2 0.2 0.2 0.2 0.1 0.1 0.0 0.0 nan nan 0.2 0.6 1.0 1.0 0.8 0.5 nan nan nan nan 0.1 0.1 0.1 0.4 0.7 0.8 1.3 0.9 0.5 0.8 0.6 0.2 0.9 2.7
0.3 0.3 0.4 0.8 0.4 0.3 1.1 0.4 0.7 0.3 0.5 0.4 0.6 1.0 1.1 0.1 nan nan nan nan nan 1.1 0.6 0.7 0.6 nan nan nan 0.3 nan nan 0.4 2.5 3.2 2.8 2.4 1.7 1.5 1.1 0.9 0.1 0.4 0.6
1.5 2.7 2.2 1.6 1.4 0.9 1.4 0.8 2.2 0.7 1.8 0.7 2.2 2.1 1.8 1.7 1.4 nan nan nan nan 1.0 0.7 0.7 nan nan nan nan nan nan 0.0 2.2 3.4 4.8 3.2 2.1 1.3 1.1 0.7 1.3 0.6 0.5 0.5
3.7 1.9 1.3 1.6 1.0 1.2 2.2 2.2 3.1 2.8 2.6 2.8 3.4 3.4 2.5 2.6 1.6 1.4 2.0 1.1 0.5 1.5 nan 1.1 nan 0.8 nan nan 1.2 1.0 1.5 1.9 2.5 3.0 2.8 2.0 2.0 3.0 2.9 1.9 3.1 2.7 5.7
2.6 1.5 1.4 2.2 2.4 1.8 1.7 2.6 2.3 1.0 2.4 5.1 6.2 4.7 6.3 6.0 3.6 1.4 3.5 3.6 2.8 3.1 3.6 5.1 4.3 3.0 3.2 2.7 3.4 2.9 2.5 3.1 4.0 3.8 4.3 4.5 4.2 3.9 3.9 2.8 3.4 4.7 6.6
2.0 3.2 3.0 3.0 2.7 2.5 2.7 3.0 nan nan nan nan nan 3.6 5.3 nan nan nan nan nan nan nan 9.3 10.7 5.7 4.4 3.6 3.8 4.9 5.1 3.8 3.7 3.8 4.6 5.4 5.5 6.9 5.9 6.0 6.4 5.9 6.7 7.6
5.7 4.4 5.2 4.5 4.1 4.1 4.0 4.3 6.9 4.0 nan nan nan nan nan nan nan nan nan nan nan nan 16.0 9.0 8.2 6.1 5.8 4.9 6.0 5.5 6.3 4.4 3.0 5.1 5.7 6.2 7.2 7.7 8.7 7.8 6.9 6.3 8.9
5.3 2.1 5.0 4.7 4.2 4.6 4.8 4.9 5.3 7.5 9.1 7.0 nan nan nan nan nan nan nan nan 15.5 nan 12.1 15.3 14.8 12.5 10.1 8.7 7.3 7.3 7.4 7.1 6.7 6.8 7.2 9.8 11.5 12.7 12.4 12.2 9.0 11.2 10.7
7.0 5.3 5.8 5.5 5.0 5.2 5.8 5.3 5.4 6.3 7.0 9.5 10.0 8.8 4.2 nan nan nan nan 11.8 17.0 15.6 15.4 15.9 13.2 13.2 11.6 11.8 11.1 12.1 11.0 11.6 10.7 13.7 13.7 14.9 13.9 14.9 15.1 11.1 9.6 6.4 7.2
8.3 3.8 6.0 9.3 8.6 7.7 6.0 8.0 8.0 8.5 9.8 11.1 11.3 10.2 12.7 11.6 15.9 16.0 13.4 18.0 18.8 17.3 15.5 17.3 17.4 18.4 19.4 18.3 17.9 16.6 17.1 18.2 16.8 16.9 16.8 16.3 15.5 16.2 13.2 16.3 14.3 13.4 14.0
14.4 12.7 3.2 12.2 14.0 14.3 14.4 12.6 11.4 14.2 12.6 14.0 11.6 11.2 nan 15.4 18.4 18.7 18.3 17.9 19.6 21.0 18.2 19.1 20.4 24.9 25.1 27.3 24.0 23.6 22.4 16.0 18.6 19.9 20.6 20.5 20.1 28.0 15.6 12.0 16.2 16.7 16.1
17.7 18.0 17.6 19.0 15.0 15.9 17.6 14.1 14.8 14.9 14.6 13.5 11.7 12.0 nan 15.2 17.7 17.6 19.8 23.4 27.5 28.3 28.7 32.5 31.5 32.8 29.9 28.6 26.2 24.6 22.0 24.4 25.1 23.9 19.9 20.9 24.0 22.8 21.2 16.7 16.9 15.2 18.2
16.9 15.9 16.8 17.0 16.5 7.5 17.7 19.7 18.7 18.3 17.7 19.0 17.7 18.4 19.8 23.2 21.8 22.3 28.2 31.1 27.2 26.5 28.3 29.0 27.6 27.3 25.5 27.4 24.7 24.0 25.3 26.9 26.6 31.0 26.5 26.4 26.1 27.8 24.5 22.5 20.3 22.7 21.4
16.1 16.1 15.9 19.3 18.4 17.3 19.6 20.7 18.8 7.3 19.6 21.1 28.4 25.1 19.0 22.5 27.8 23.4 24.0 26.8 23.8 32.7 26.3 27.2 24.0 23.5 24.5 31.4 36.2 35.2 36.7 37.7 36.8 34.8 32.5 26.7 26.3 21.5 23.4 25.3 21.1 19.3 18.1
20.3 18.6 18.5 17.5 22.9 20.4 19.5 22.5 18.9 23.6 26.0 22.4 24.9 20.7 21.3 20.0 20.4 25.6 24.8 21.9 23.7 22.3 20.4 20.1 20.5 20.7 21.0 21.8 27.1 31.6 29.8 4.7 20.8 5.1 31.0 24.7 27.6 27.8 27.0 23.5 22.2 20.5 18.4
17.6 18.8 19.4 19.7 19.6 20.7 20.9 20.5 20.9 18.1 21.3 22.1 21.1 21.4 19.4 19.4 19.1 20.9 19.9 20.2 17.6 18.3 18.8 20.0 20.0 18.5 17.8 19.1 19.7 7.4 4.5 4.0 25.9 4.5 26.9 24.7 26.8 25.8 25.3 25.1 24.3 23.3 19.9
Water_Equivalent
0.00 0.00 0.00 0.00 0.00 0.00 0.00 0.00 0.00 0.00 0.00 0.00 0.00 0.00 0.00 0.00 0.00 0.00 0.00 0.00 0.00 0.00 0.00 0.00 0.00 0.00 0.00 0.00 0.00 0.00 0.00 0.00 0.00 0.00 0.00 0.00 0.00 0.00 0.00 0.00 0.00 0.00 0.00
0.00 0.00 0.00 0.00 0.00 0.00 0.00 0.00 0.00 0.00 0.00 0.00 0.00 0.00 0.00 0.00 0.00 0.00 0.00 0.00 0.00 0.00 0.00 0.00 0.00 0.00 0.00 0.00 0.00 0.00 0.00 0.00 0.00 0.00 0.00 0.00 0.00 0.00 0.00 0.00 0.00 0.00 0.00
0.00 0.00 0.00 0.00 0.00 0.00 0.00 0.00 0.00 0.00 0.00 0.00 0.00 0.00 0.00 0.00 0.00 0.00 0.00 0.00 0.00 0.00 0.00 0.00 0.00 0.00 0.00 0.00 0.00 0.00 0.00 0.00 0.00 0.02 0.03 0.02 0.03 0.03 0.05 0.02 0.00 0.00 0.00
0.00 0.00 0.00 0.00 0.00 0.00 0.00 0.00 0.00 0.00 0.00 0.00 0.00 0.00 0.00 0.00 0.00 0.00 0.00 0.00 0.00 0.00 0.00 0.00 0.00 0.00 0.00 0.00 0.00 0.00 0.00 0.02 0.03 0.05 0.07 0.06 0.07 0.09 0.08 0.09 0.12 0.10 0.10
0.00 0.00 0.00 0.00 0.00 0.00 0.00 0.00 0.00 0.00 0.00 0.00 0.00 0.00 0.00 0.00 0.00 0.00 0.00 0.00 0.00 0.00 0.00 0.00 0.00 0.00 nan nan 0.01 0.01 0.00 0.02 0.09 0.10 0.10 0.09 0.10 0.14 0.12 0.11 0.16 0.12 0.09
0.00 0.00 0.00 0.00 0.00 0.00 0.00 0.00 0.00 0.00 0.00 0.00 0.00 0.00 0.00 0.00 nan nan 0.00 0.00 0.00 0.00 0.00 0.00 0.00 0.00 0.00 nan nan nan nan 0.00 0.01 0.13 0.10 0.08 0.01 0.11 0.13 0.15 0.18 0.28 0.29
0.00 0.00 0.00 0.01 0.01 0.01 0.01 0.01 0.01 0.01 0.00 0.00 0.00 0.00 0.00 0.00 nan nan nan 0.01 0.00 0.00 0.00 0.00 0.00 0.00 0.02 0.00 nan nan nan nan nan 0.00 0.01 0.03 0.02 0.01 0.02 0.03 0.03 0.18 0.21
0.00 0.01 0.02 0.02 0.02 0.02 0.02 0.02 0.02 0.01 0.01 0.01 0.00 0.00 0.00 0.00 nan nan nan 0.00 0.00 0.00 0.00 0.00 0.00 0.00 0.00 0.00 0.00 0.01 0.01 0.00 0.00 0.00 0.00 0.00 0.00 0.01 0.01 0.01 0.02 0.03 0.22
0.01 0.01 0.02 0.02 0.03 0.03 0.04 0.02 0.02 0.02 0.02 0.01 0.01 0.01 0.01 0.00 nan nan 0.00 0.00 0.00 0.00 0.00 0.00 0.00 0.00 nan nan 0.01 0.01 0.02 0.01 nan nan nan nan nan nan nan 0.38 1.36 1.90 1.02
0.01 0.01 0.02 0.02 0.04 0.03 0.02 0.03 0.04 0.02 0.02 0.17 0.02 0.02 0.00 0.01 nan nan nan 0.12 0.01 0.16 0.02 0.01 0.01 0.00 nan nan 0.01 0.02 0.05 0.02 0.08 0.32 0.03 0.01 nan nan nan 0.02 0.39 1.31 0.96
0.02 0.02 0.03 0.03 0.05 0.03 0.03 0.04 0.05 0.04 0.04 0.06 0.06 0.04 0.04 0.02 0.01 nan nan 0.07 0.21 0.32 0.30 0.25 0.16 nan nan nan nan 0.02 0.03 0.02 0.15 0.21 0.26 0.41 0.28 0.17 0.28 0.18 0.06 0.25 0.61
0.06 0.06 0.08 0.17 0.10 0.06 0.25 0.12 0.20 0.10 0.13 0.11 0.14 0.24 0.29 0.04 nan nan nan nan nan 0.35 0.17 0.20 0.18 nan nan nan 0.12 nan nan 0.15 0.80 0.93 0.81 0.64 0.45 0.40 0.32 0.27 0.03 0.11 0.16
0.28 0.51 0.43 0.34 0.30 0.21 0.34 0.18 0.55 0.18 0.42 0.14 0.47 0.45 0.37 0.40 0.37 nan nan nan nan 0.32 0.24 0.20 nan nan nan nan nan nan 0.00 0.66 0.94 1.21 0.75 0.49 0.32 0.27 0.16 0.27 0.13 0.10 0.09
0.72 0.32 0.22 0.30 0.22 0.24 0.48 0.52 0.73 0.61 0.53 0.59 0.70 0.68 0.50 0.51 0.36 0.36 0.58 0.34 0.14 0.50 nan 0.38 nan 0.27 nan nan 0.37 0.32 0.46 0.53 0.60 0.67 0.59 0.41 0.44 0.59 0.57 0.41 0.59 0.52 0.96
0.43 0.21 0.25 0.44 0.47 0.31 0.32 0.54 0.46 0.20 0.53 1.09 1.38 0.98 1.20 1.15 0.73 0.34 0.90 0.99 0.86 0.89 0.98 1.29 1.06 0.70 0.70 0.61 0.76 0.69 0.65 0.73 0.85 0.81 0.83 0.83 0.79 0.75 0.72 0.55 0.61 0.84 1.09
0.26 0.48 0.50 0.52 0.46 0.40 0.43 0.47 nan nan nan nan nan 0.80 1.25 nan nan nan nan nan nan nan 2.40 2.35 1.08 0.83 0.64 0.69 0.89 0.86 0.72 0.75 0.70 0.84 0.97 0.99 1.08 0.92 0.93 1.07 1.01 1.11 1.17
0.71 0.49 0.66 0.58 0.54 0.59 0.62 0.70 0.89 0.67 nan nan nan nan nan nan nan nan nan nan nan nan 3.72 1.75 1.43 0.99 0.94 0.78 0.94 0.86 0.89 0.70 0.42 0.85 0.86 0.97 1.10 1.23 1.40 1.22 1.06 0.99 1.43
0.68 0.68 0.72 0.68 0.66 0.72 0.77 0.80 0.87 1.07 1.23 0.98 nan nan nan nan nan nan nan nan 3.30 nan 2.64 2.78 2.35 1.87 1.41 1.26 1.04 1.01 1.01 0.98 0.93 0.98 1.05 1.50 1.80 1.96 1.88 1.88 1.41 1.76 1.67
0.80 0.66 0.74 0.73 0.69 0.75 0.84 0.75 0.82 0.85 0.89 1.15 1.15 1.16 0.98 nan nan nan nan 2.12 2.92 2.55 2.51 2.63 2.18 2.01 1.59 1.68 1.57 1.79 1.54 1.62 1.51 2.08 2.13 2.32 2.15 2.31 2.33 1.70 1.42 1.25 1.34
0.88 0.93 0.86 1.13 1.02 0.91 0.66 0.85 0.80 0.84 0.95 1.12 1.16 1.05 1.76 1.94 2.59 2.67 2.18 3.10 3.10 2.73 2.35 2.62 2.65 2.91 3.02 2.81 2.74 2.51 2.57 2.75 2.50 2.55 2.52 2.47 2.36 2.55 1.81 2.43 2.14 1.87 2.13
1.48 1.24 1.06 1.16 1.40 1.45 1.47 1.22 1.05 1.41 1.22 1.43 1.14 1.12 nan 1.98 2.13 2.35 2.65 2.46 2.87 3.12 2.55 2.79 2.96 3.86 3.99 4.45 3.70 3.59 3.31 2.12 2.65 2.90 3.08 3.06 3.00 3.88 2.32 1.65 2.31 2.46 2.38
1.70 1.76 1.73 1.87 1.35 1.46 1.71 1.26 1.37 1.39 1.35 1.22 1.03 1.17 nan 1.52 1.81 1.84 2.06 2.65 3.29 3.40 3.86 4.53 4.42 4.80 4.24 3.96 3.56 3.35 2.83 3.27 3.53 3.29 2.64 2.79 3.32 2.95 2.94 2.15 2.25 1.99 2.55
1.49 1.32 1.44 1.45 1.41 1.56 1.62 1.92 1.75 1.71 1.60 1.79 1.64 1.65 1.83 2.37 2.15 2.13 3.05 3.39 2.79 2.67 3.02 3.23 3.04 2.96 2.80 3.14 2.79 2.70 2.85 3.13 3.19 4.19 2.99 3.08 3.00 3.43 3.10 2.81 2.52 2.84 2.74
1.34 1.36 1.34 1.80 1.64 1.45 1.74 1.86 1.62 1.66 1.75 1.93 2.96 2.48 1.63 2.07 2.83 2.13 2.23 2.65 2.23 3.65 2.65 2.82 2.35 2.30 2.51 3.75 4.75 4.64 5.00 5.25 4.99 4.59 4.13 2.91 2.84 2.48 2.53 2.96 2.38 2.27 1.95
1.75 1.52 1.54 1.43 2.18 1.79 1.67 2.05 1.54 2.15 2.49 2.02 2.42 1.81 1.86 1.70 1.83 2.62 2.46 2.04 2.29 2.12 1.86 1.84 1.92 1.98 2.03 2.15 2.96 3.82 4.01 1.56 2.96 1.69 3.64 2.58 3.01 3.06 2.92 2.51 2.37 2.09 1.87
1.41 1.53 1.60 1.65 1.63 1.80 1.88 1.84 1.92 1.54 1.96 2.09 1.94 1.99 1.71 1.71 1.71 2.05 1.90 1.92 1.56 1.65 1.73 1.90 1.90 1.70 1.61 1.80 1.91 1.79 1.47 1.31 3.13 1.47 2.90 2.42 2.72 2.49 2.45 2.47 2.33 2.26 1.87
SL_Ratio
nan nan nan nan nan nan nan nan nan nan nan nan nan nan nan nan nan nan nan nan nan nan nan nan nan nan nan nan nan nan nan nan nan nan nan nan nan nan nan nan nan nan nan
nan nan nan nan nan nan nan nan nan nan nan nan nan nan nan nan nan nan nan nan nan nan nan nan nan nan nan nan nan nan nan nan nan nan nan nan nan nan nan nan nan nan nan
nan nan nan nan nan nan nan nan nan nan nan nan nan nan nan nan nan nan nan nan nan nan nan nan nan nan nan nan nan nan nan nan nan 2.6 2.5 2.5 2.5 2.5 2.5 2.5 nan nan nan
nan nan nan nan nan nan nan nan nan nan nan nan nan nan nan nan nan nan nan nan nan nan nan nan nan nan nan nan nan nan nan 2.5 2.5 2.5 2.5 2.5 2.5 2.5 2.5 2.6 3.0 2.6 2.5
nan nan nan nan nan nan nan nan nan nan nan nan nan nan nan nan nan nan nan nan nan nan nan nan nan nan nan nan 2.3 2.5 2.5 2.4 2.5 2.5 2.6 2.6 2.7 3.0 3.1 2.9 2.9 2.8 2.9
nan nan nan nan nan nan 5.0 1.7 2.5 5.0 nan nan nan nan nan nan nan nan nan nan nan nan nan nan nan nan nan nan nan nan nan nan 3.1 2.6 2.8 2.8 2.6 2.8 2.8 3.1 3.1 3.6 4.0
nan 3.3 2.9 2.5 2.9 2.5 2.8 2.9 2.6 3.0 2.9 2.9 5.0 nan nan nan nan nan nan 2.2 3.0 nan nan nan nan nan 2.6 nan nan nan nan nan nan nan 3.3 2.9 3.4 2.9 3.1 3.5 3.5 3.5 3.4
2.5 3.0 3.0 2.9 3.3 3.4 3.4 3.3 3.3 3.0 2.9 2.9 2.9 0.0 nan nan nan nan nan nan nan nan nan nan nan nan nan 2.5 2.5 3.3 2.8 3.3 3.3 0.0 2.5 2.9 nan 2.1 2.7 3.5 3.9 3.5 3.6
3.0 3.1 3.2 3.5 3.9 3.9 4.2 3.7 3.3 3.2 3.1 3.1 2.5 2.7 3.0 2.5 nan nan nan nan nan 2.5 nan nan nan 2.5 nan nan 3.0 3.0 3.0 2.7 nan nan nan nan nan nan nan 2.9 3.6 3.9 4.7
3.2 3.2 3.5 3.8 4.3 4.2 3.8 4.0 3.7 3.2 3.2 3.1 3.0 2.8 3.0 2.7 nan nan nan 2.5 3.0 2.9 3.0 2.5 2.5 2.1 nan nan 3.1 3.3 3.6 3.3 2.9 2.7 3.0 2.6 nan nan nan 3.3 3.4 4.3 4.8
4.0 4.5 4.6 4.4 4.7 4.1 4.0 3.9 3.8 3.7 3.8 3.5 3.8 3.5 3.0 2.9 2.9 nan nan 2.7 2.9 3.2 3.2 3.4 3.1 nan nan nan nan 3.6 3.8 3.0 2.9 3.1 3.2 3.2 3.1 3.2 3.0 3.1 3.4 3.6 4.4
4.9 5.3 5.2 4.8 4.5 4.2 4.2 3.9 3.4 3.4 3.7 4.0 4.2 4.1 3.9 3.8 nan nan nan nan nan 3.1 3.4 3.4 3.5 nan nan nan 2.5 nan nan 3.0 3.1 3.4 3.5 3.8 3.8 3.8 3.5 3.5 4.0 3.9 3.9
5.5 5.3 5.1 4.8 4.5 4.3 4.1 4.3 4.1 4.0 4.3 5.0 4.7 4.7 4.8 4.3 3.7 nan nan nan nan 3.0 3.0 3.6 nan nan nan nan nan nan 3.8 3.3 3.6 4.0 4.2 4.4 4.1 3.9 4.4 4.6 4.8 5.0 5.2
5.1 6.0 5.8 5.4 4.6 5.1 4.5 4.3 4.2 4.6 4.9 4.8 4.9 5.0 5.0 5.0 4.5 3.8 3.4 3.1 3.2 3.0 nan 3.0 nan 2.9 nan nan 3.3 3.1 3.2 3.6 4.2 4.5 4.8 4.8 4.6 5.1 5.0 4.8 5.3 5.2 5.9
6.0 7.1 5.5 5.1 5.1 5.6 5.4 4.8 4.9 4.8 4.5 4.7 4.5 4.8 5.2 5.2 5.0 4.2 3.9 3.6 3.2 3.4 3.6 3.9 4.1 4.3 4.6 4.5 4.4 4.2 3.9 4.3 4.7 4.7 5.1 5.4 5.3 5.2 5.4 5.2 5.6 5.5 6.0
7.6 6.6 6.0 5.8 5.9 6.2 6.4 6.4 nan nan nan nan nan 4.5 4.2 nan nan nan nan nan nan nan 3.9 4.6 5.3 5.3 5.6 5.5 5.5 5.9 5.3 4.9 5.4 5.5 5.5 5.6 6.4 6.4 6.5 6.0 5.9 6.0 6.5
8.0 8.9 7.8 7.8 7.5 6.9 6.4 6.2 7.7 5.9 nan nan nan nan nan nan nan nan nan nan nan nan 4.3 5.2 5.7 6.1 6.2 6.2 6.4 6.4 7.0 6.3 7.2 6.0 6.6 6.5 6.6 6.3 6.2 6.4 6.5 6.4 6.2
7.8 3.0 7.0 6.9 6.4 6.4 6.2 6.1 6.1 7.0 7.4 7.1 nan nan nan nan nan nan nan nan 4.7 nan 4.6 5.5 6.3 6.7 7.2 6.9 7.0 7.3 7.3 7.3 7.2 6.9 6.9 6.5 6.4 6.5 6.6 6.5 6.4 6.3 6.4
8.8 8.1 7.8 7.6 7.3 6.9 6.9 7.1 6.6 7.4 7.9 8.3 8.7 7.5 4.3 nan nan nan nan 5.6 5.8 6.1 6.1 6.0 6.1 6.6 7.3 7.0 7.1 6.8 7.1 7.2 7.1 6.6 6.5 6.4 6.5 6.5 6.5 6.6 6.8 5.1 5.4
9.4 4.0 7.0 8.2 8.4 8.5 9.1 9.4 10.1 10.1 10.3 9.9 9.7 9.8 7.2 6.0 6.1 6.0 6.2 5.8 6.1 6.3 6.6 6.6 6.6 6.3 6.4 6.5 6.5 6.6 6.7 6.6 6.7 6.6 6.7 6.6 6.5 6.4 7.3 6.7 6.7 7.2 6.5
9.7 10.2 3.0 10.5 10.0 9.9 9.8 10.3 10.8 10.1 10.3 9.8 10.2 10.0 nan 7.8 8.6 8.0 6.9 7.2 6.8 6.7 7.1 6.9 6.9 6.4 6.3 6.1 6.5 6.6 6.8 7.5 7.0 6.9 6.7 6.7 6.7 7.2 6.7 7.3 7.0 6.8 6.8
10.4 10.2 10.2 10.1 11.2 10.9 10.3 11.1 10.9 10.7 10.8 11.2 11.4 10.3 nan 10.0 9.8 9.6 9.6 8.8 8.4 8.3 7.4 7.2 7.1 6.8 7.1 7.2 7.4 7.3 7.8 7.5 7.1 7.3 7.5 7.5 7.2 7.7 7.2 7.8 7.5 7.7 7.1
11.3 12.1 11.7 11.7 11.7 4.8 10.9 10.2 10.7 10.7 11.1 10.6 10.8 11.1 10.8 9.8 10.2 10.4 9.3 9.2 9.7 9.9 9.4 9.0 9.1 9.2 9.1 8.7 8.8 8.9 8.9 8.6 8.3 7.4 8.8 8.6 8.7 8.1 7.9 8.0 8.0 8.0 7.8
12.0 11.9 11.8 10.7 11.2 12.0 11.3 11.1 11.6 4.4 11.2 10.9 9.6 10.1 11.6 10.8 9.8 11.0 10.8 10.1 10.7 8.9 9.9 9.7 10.2 10.2 9.7 8.4 7.6 7.6 7.3 7.2 7.4 7.6 7.9 9.2 9.2 8.7 9.3 8.6 8.9 8.5 9.3
11.6 12.2 12.0 12.2 10.5 11.4 11.7 11.0 12.2 11.0 10.4 11.1 10.3 11.4 11.5 11.7 11.1 9.8 10.1 10.7 10.3 10.5 10.9 10.9 10.7 10.5 10.3 10.2 9.2 8.3 7.4 3.0 7.0 3.0 8.5 9.6 9.2 9.1 9.2 9.4 9.4 9.8 9.8
12.4 12.3 12.1 11.9 12.1 11.5 11.1 11.2 10.9 11.7 10.9 10.6 10.9 10.8 11.4 11.4 11.1 10.2 10.5 10.5 11.3 11.1 10.8 10.6 10.5 10.9 11.0 10.6 10.3 4.1 3.0 3.0 8.3 3.0 9.3 10.2 9.9 10.4 10.3 10.2 10.4 10.3 10.7